[Date Prev][Date Next][Thread Prev][Thread Next] - [Date Index][Thread Index][Author Index]
2 Line ISS Keps 1-14
- Subject: [sarex] 2 Line ISS Keps 1-14
- From: "Dave Larsen PhD" <doc@xxxxxxxxxxx>
- Date: Mon, 14 Jan 2008 06:29:54 -0800
ISS
1 25544U 98067A 08014.55600694 .00024594 00000-0 15177-3 0 7129
2 25544 051.6383 093.7755 0005484 280.0502 284.2730 15.76984221524127
----
Sent via sarex@amsat.org. Opinions expressed are those of the author.
Not an AMSAT member? Join now to support the amateur satellite program!
Subscription settings: http://amsat.org/mailman/listinfo/sarex
AMSAT Home